Time,TemperatureF,DewpointF,PressureIn,WindDirection,WindDirectionDegrees,WindSpeedMPH,WindSpeedGustMPH,Humidity,HourlyPrecipIn,Conditions,Clouds,dailyrainin,SoftwareType,DateUTC
2014-02-01 00:11:00,20.5,18.0,30.01,North,350,1.0,5.0,89,0.00,,,0.00,weatherlink.com 1.10,2014-02-01 06:11:00,
2014-02-01 00:25:00,20.6,18.0,30.01,North,355,1.0,6.0,88,0.00,,,0.00,weatherlink.com 1.10,2014-02-01 06:25:00,
2014-02-01 00:40:00,20.5,18.0,30.02,NNW,347,1.0,5.0,88,0.00,,,0.00,weatherlink.com 1.10,2014-02-01 06:40:00,
2014-02-01 00:56:00,20.4,17.0,30.01,NNW,329,5.0,6.0,88,0.00,,,0.00,weatherlink.com 1.10,2014-02-01 06:56:00,
2014-02-01 01:11:00,20.3,17.0,29.98,NNW,346,4.0,8.0,88,0.00,,,0.00,weatherlink.com 1.10,2014-02-01 07:11:00,
2014-02-01 01:25:00,20.4,17.0,29.99,North,360,3.0,8.0,88,0.00,,,0.00,weatherlink.com 1.10,2014-02-01 07:25:00,
2014-02-01 01:41:00,20.6,18.0,29.98,NNW,337,4.0,9.0,88,0.00,,,0.00,weatherlink.com 1.10,2014-02-01 07:41:00,
2014-02-01 01:56:00,20.7,18.0,29.98,NNE,29,6.0,8.0,88,0.00,,,0.00,weatherlink.com 1.10,2014-02-01 07:56:00,
2014-02-01 02:11:00,20.9,18.0,29.99,North,5,3.0,8.0,88,0.00,,,0.00,weatherlink.com 1.10,2014-02-01 08:11:00,
2014-02-01 02:25:00,21.0,18.0,29.99,NNW,343,1.0,6.0,88,0.00,,,0.00,weatherlink.com 1.10,2014-02-01 08:25:00,
2014-02-01 02:42:00,21.1,18.0,29.99,North,5,2.0,5.0,88,0.00,,,0.00,weatherlink.com 1.10,2014-02-01 08:42:00,
2014-02-01 02:56:00,21.2,18.0,30.00,North,5,2.0,4.0,88,0.00,,,0.00,weatherlink.com 1.10,2014-02-01 08:56:00,
2014-02-01 03:11:00,21.3,18.0,30.00,North,360,2.0,5.0,87,0.00,,,0.00,weatherlink.com 1.10,2014-02-01 09:11:00,
2014-02-01 03:26:00,21.4,18.0,30.00,North,360,2.0,4.0,87,0.00,,,0.00,weatherlink.com 1.10,2014-02-01 09:26:00,
2014-02-01 03:41:00,21.5,18.0,29.99,NNW,346,3.0,5.0,87,0.00,,,0.00,weatherlink.com 1.10,2014-02-01 09:41:00,
2014-02-01 03:57:00,21.5,18.0,29.98,NNW,346,2.0,4.0,87,0.00,,,0.00,weatherlink.com 1.10,2014-02-01 09:57:00,
2014-02-01 04:12:00,21.6,18.0,29.99,NNW,346,2.0,4.0,87,0.00,,,0.00,weatherlink.com 1.10,2014-02-01 10:12:00,
2014-02-01 04:27:00,21.6,18.0,29.99,NW,317,3.0,6.0,87,0.00,,,0.00,weatherlink.com 1.10,2014-02-01 10:27:00,
2014-02-01 04:42:00,21.6,18.0,29.99,NW,317,2.0,5.0,87,0.00,,,0.00,weatherlink.com 1.10,2014-02-01 10:42:00,
2014-02-01 04:57:00,21.7,18.0,30.00,NNW,329,2.0,5.0,86,0.00,,,0.00,weatherlink.com 1.10,2014-02-01 10:57:00,
2014-02-01 05:12:00,21.8,19.0,30.01,NNW,329,0.0,1.0,87,0.00,,,0.00,weatherlink.com 1.10,2014-02-01 11:12:00,
2014-02-01 05:27:00,21.8,19.0,30.00,NNW,329,3.0,3.0,87,0.00,,,0.00,weatherlink.com 1.10,2014-02-01 11:27:00,
2014-02-01 05:41:00,21.9,19.0,30.01,NNW,329,1.0,5.0,87,0.00,,,0.00,weatherlink.com 1.10,2014-02-01 11:41:00,
2014-02-01 05:58:00,22.0,19.0,30.00,NNW,328,2.0,4.0,87,0.00,,,0.00,weatherlink.com 1.10,2014-02-01 11:58:00,
2014-02-01 06:12:00,22.1,19.0,30.00,NNW,328,2.0,3.0,87,0.00,,,0.00,weatherlink.com 1.10,2014-02-01 12:12:00,
2014-02-01 06:27:00,22.2,19.0,30.02,NNW,328,0.0,4.0,87,0.00,,,0.00,weatherlink.com 1.10,2014-02-01 12:27:00,
2014-02-01 06:42:00,22.3,19.0,30.02,NNW,328,4.0,5.0,86,0.00,,,0.00,weatherlink.com 1.10,2014-02-01 12:42:00,
2014-02-01 06:58:00,22.5,19.0,30.02,NW,321,1.0,7.0,87,0.00,,,0.00,weatherlink.com 1.10,2014-02-01 12:58:00,
2014-02-01 07:13:00,22.5,19.0,30.03,NW,321,2.0,9.0,86,0.00,,,0.00,weatherlink.com 1.10,2014-02-01 13:13:00,
2014-02-01 07:27:00,22.7,19.0,30.04,NNW,327,4.0,6.0,86,0.00,,,0.00,weatherlink.com 1.10,2014-02-01 13:27:00,
2014-02-01 07:42:00,22.7,19.0,30.05,NNW,336,2.0,6.0,86,0.00,,,0.00,weatherlink.com 1.10,2014-02-01 13:42:00,
2014-02-01 07:58:00,22.9,19.0,30.06,NNW,340,3.0,7.0,85,0.00,,,0.00,weatherlink.com 1.10,2014-02-01 13:58:00,
2014-02-01 08:13:00,23.0,19.0,30.06,NNW,331,6.0,6.0,85,0.00,,,0.00,weatherlink.com 1.10,2014-02-01 14:13:00,
2014-02-01 08:28:00,23.1,19.0,30.08,NNW,346,2.0,4.0,85,0.00,,,0.00,weatherlink.com 1.10,2014-02-01 14:28:00,
2014-02-01 08:42:00,23.3,20.0,30.08,North,349,3.0,4.0,85,0.00,,,0.00,weatherlink.com 1.10,2014-02-01 14:42:00,
2014-02-01 08:59:00,23.4,19.0,30.09,NNW,333,3.0,7.0,84,0.00,,,0.00,weatherlink.com 1.10,2014-02-01 14:59:00,
2014-02-01 09:13:00,23.6,20.0,30.09,NNW,346,4.0,6.0,84,0.00,,,0.00,weatherlink.com 1.10,2014-02-01 15:13:00,
2014-02-01 09:28:00,23.6,19.0,30.10,North,360,2.0,9.0,83,0.00,,,0.00,weatherlink.com 1.10,2014-02-01 15:28:00,
2014-02-01 09:43:00,23.7,19.0,30.10,NW,315,3.0,8.0,82,0.00,,,0.00,weatherlink.com 1.10,2014-02-01 15:43:00,
2014-02-01 09:58:00,24.1,19.0,30.11,NW,322,2.0,7.0,81,0.00,,,0.00,weatherlink.com 1.10,2014-02-01 15:58:00,
2014-02-01 10:14:00,24.6,19.0,30.11,NNW,333,4.0,8.0,80,0.00,,,0.00,weatherlink.com 1.10,2014-02-01 16:14:00,
2014-02-01 10:28:00,25.0,20.0,30.12,NNW,342,7.0,9.0,80,0.00,,,0.00,weatherlink.com 1.10,2014-02-01 16:28:00,
2014-02-01 10:43:00,25.1,19.0,30.13,NW,326,2.0,12.0,78,0.00,,,0.00,weatherlink.com 1.10,2014-02-01 16:43:00,
2014-02-01 10:58:00,26.1,20.0,30.14,North,355,4.0,11.0,77,0.00,,,0.00,weatherlink.com 1.10,2014-02-01 16:58:00,
2014-02-01 11:14:00,26.7,20.0,30.14,North,355,8.0,12.0,77,0.00,,,0.00,weatherlink.com 1.10,2014-02-01 17:14:00,
2014-02-01 11:29:00,26.5,20.0,30.14,North,355,9.0,14.0,76,0.00,,,0.00,weatherlink.com 1.10,2014-02-01 17:29:00,
2014-02-01 11:44:00,26.5,20.0,30.14,NNE,29,13.0,16.0,76,0.00,,,0.00,weatherlink.com 1.10,2014-02-01 17:44:00,
2014-02-01 11:58:00,26.8,20.0,30.14,North,11,14.0,17.0,76,0.00,,,0.00,weatherlink.com 1.10,2014-02-01 17:58:00,
2014-02-01 12:14:00,26.7,20.0,30.13,NE,40,8.0,18.0,76,0.00,,,0.00,weatherlink.com 1.10,2014-02-01 18:14:00,
2014-02-01 12:29:00,27.1,20.0,30.12,NNE,23,11.0,20.0,76,0.00,,,0.00,weatherlink.com 1.10,2014-02-01 18:29:00,
2014-02-01 12:44:00,27.0,20.0,30.12,NNE,23,11.0,20.0,76,0.00,,,0.00,weatherlink.com 1.10,2014-02-01 18:44:00,
2014-02-01 12:59:00,26.9,20.0,30.12,NNE,26,7.0,14.0,76,0.00,,,0.00,weatherlink.com 1.10,2014-02-01 18:59:00,
2014-02-01 13:15:00,27.5,21.0,30.13,NNE,28,8.0,15.0,77,0.00,,,0.00,weatherlink.com 1.10,2014-02-01 19:15:00,
2014-02-01 13:30:00,27.5,21.0,30.13,North,11,7.0,13.0,77,0.00,,,0.00,weatherlink.com 1.10,2014-02-01 19:30:00,
2014-02-01 13:44:00,27.1,21.0,30.14,NNW,341,5.0,12.0,77,0.00,,,0.00,weatherlink.com 1.10,2014-02-01 19:44:00,
2014-02-01 13:59:00,26.9,21.0,30.14,North,355,8.0,14.0,77,0.00,,,0.00,weatherlink.com 1.10,2014-02-01 19:59:00,
2014-02-01 14:15:00,26.1,20.0,30.15,NNE,15,8.0,13.0,76,0.00,,,0.00,weatherlink.com 1.10,2014-02-01 20:15:00,
2014-02-01 14:30:00,25.7,19.0,30.16,North,355,6.0,13.0,75,0.00,,,0.00,weatherlink.com 1.10,2014-02-01 20:30:00,
2014-02-01 14:45:00,25.1,18.0,30.16,NNW,335,7.0,12.0,75,0.00,,,0.00,weatherlink.com 1.10,2014-02-01 20:45:00,
2014-02-01 14:59:00,25.0,18.0,30.16,NNE,13,8.0,14.0,74,0.00,,,0.00,weatherlink.com 1.10,2014-02-01 20:59:00,
2014-02-01 15:15:00,25.3,18.0,30.18,North,5,6.0,16.0,73,0.00,,,0.00,weatherlink.com 1.10,2014-02-01 21:15:00,
2014-02-01 15:30:00,25.1,17.0,30.18,North,9,5.0,14.0,72,0.00,,,0.00,weatherlink.com 1.10,2014-02-01 21:30:00,
2014-02-01 15:44:00,24.7,17.0,30.19,NNW,345,4.0,14.0,71,0.00,,,0.00,weatherlink.com 1.10,2014-02-01 21:44:00,
2014-02-01 16:00:00,24.3,16.0,30.20,NNW,344,6.0,14.0,72,0.00,,,0.00,weatherlink.com 1.10,2014-02-01 22:00:00,
2014-02-01 16:15:00,24.0,16.0,30.21,North,360,4.0,15.0,72,0.00,,,0.00,weatherlink.com 1.10,2014-02-01 22:15:00,
2014-02-01 16:30:00,24.1,16.0,30.22,North,355,5.0,13.0,72,0.00,,,0.00,weatherlink.com 1.10,2014-02-01 22:30:00,
2014-02-01 16:46:00,23.7,16.0,30.23,North,5,8.0,15.0,72,0.00,,,0.00,weatherlink.com 1.10,2014-02-01 22:46:00,
2014-02-01 17:01:00,23.6,16.0,30.23,North,360,8.0,14.0,72,0.00,,,0.00,weatherlink.com 1.10,2014-02-01 23:01:00,
2014-02-01 17:15:00,23.5,15.0,30.24,NNW,333,8.0,15.0,71,0.00,,,0.00,weatherlink.com 1.10,2014-02-01 23:15:00,
2014-02-01 17:32:00,23.4,16.0,30.25,North,355,5.0,11.0,73,0.00,,,0.00,weatherlink.com 1.10,2014-02-01 23:32:00,
2014-02-01 17:46:00,23.2,15.0,30.26,NNW,336,5.0,11.0,72,0.00,,,0.00,weatherlink.com 1.10,2014-02-01 23:46:00,
2014-02-01 18:00:00,23.1,15.0,30.27,North,5,4.0,11.0,71,0.00,,,0.00,weatherlink.com 1.10,2014-02-02 00:00:00,
2014-02-01 18:16:00,23.0,15.0,30.28,North,355,8.0,12.0,71,0.00,,,0.00,weatherlink.com 1.10,2014-02-02 00:16:00,
2014-02-01 18:31:00,22.9,15.0,30.29,North,350,4.0,10.0,72,0.00,,,0.00,weatherlink.com 1.10,2014-02-02 00:31:00,
2014-02-01 18:46:00,22.8,15.0,30.30,NNW,348,5.0,11.0,72,0.00,,,0.00,weatherlink.com 1.10,2014-02-02 00:46:00,
2014-02-01 19:01:00,22.8,15.0,30.30,NNW,347,6.0,11.0,73,0.00,,,0.00,weatherlink.com 1.10,2014-02-02 01:01:00,
2014-02-01 19:16:00,22.9,15.0,30.31,North,9,9.0,10.0,73,0.00,,,0.00,weatherlink.com 1.10,2014-02-02 01:16:00,
2014-02-01 19:31:00,22.9,15.0,30.31,NNW,343,7.0,10.0,72,0.00,,,0.00,weatherlink.com 1.10,2014-02-02 01:31:00,
2014-02-01 19:47:00,22.7,15.0,30.32,North,360,7.0,9.0,73,0.00,,,0.00,weatherlink.com 1.10,2014-02-02 01:47:00,
2014-02-01 20:02:00,22.8,15.0,30.32,North,10,6.0,8.0,72,0.00,,,0.00,weatherlink.com 1.10,2014-02-02 02:02:00,
2014-02-01 20:16:00,22.8,15.0,30.33,NNW,348,5.0,7.0,71,0.00,,,0.00,weatherlink.com 1.10,2014-02-02 02:16:00,
2014-02-01 20:31:00,22.8,15.0,30.33,North,360,4.0,7.0,71,0.00,,,0.00,weatherlink.com 1.10,2014-02-02 02:31:00,
2014-02-01 20:47:00,22.7,15.0,30.34,NNW,335,2.0,5.0,72,0.00,,,0.00,weatherlink.com 1.10,2014-02-02 02:47:00,
2014-02-01 21:02:00,22.4,15.0,30.34,NNE,13,3.0,6.0,72,0.00,,,0.00,weatherlink.com 1.10,2014-02-02 03:02:00,
2014-02-01 21:16:00,22.2,15.0,30.35,NNE,12,2.0,5.0,73,0.00,,,0.00,weatherlink.com 1.10,2014-02-02 03:16:00,
2014-02-01 21:33:00,21.8,14.0,30.36,NNE,12,1.0,4.0,73,0.00,,,0.00,weatherlink.com 1.10,2014-02-02 03:33:00,
2014-02-01 21:47:00,21.5,14.0,30.37,NNE,12,1.0,3.0,74,0.00,,,0.00,weatherlink.com 1.10,2014-02-02 03:47:00,
2014-02-01 22:02:00,21.3,14.0,30.38,NNE,12,0.0,2.0,73,0.00,,,0.00,weatherlink.com 1.10,2014-02-02 04:02:00,
2014-02-01 22:17:00,20.7,13.0,30.38,NNE,12,0.0,1.0,73,0.00,,,0.00,weatherlink.com 1.10,2014-02-02 04:17:00,
2014-02-01 22:33:00,19.5,13.0,30.38,NNE,12,0.0,2.0,75,0.00,,,0.00,weatherlink.com 1.10,2014-02-02 04:33:00,
2014-02-01 22:47:00,18.9,12.0,30.38,NNE,12,2.0,3.0,75,0.00,,,0.00,weatherlink.com 1.10,2014-02-02 04:47:00,
2014-02-01 23:02:00,18.2,12.0,30.38,NNE,12,2.0,4.0,75,0.00,,,0.00,weatherlink.com 1.10,2014-02-02 05:02:00,
2014-02-01 23:18:00,17.7,11.0,30.38,NNE,12,0.0,3.0,75,0.00,,,0.00,weatherlink.com 1.10,2014-02-02 05:18:00,
2014-02-01 23:33:00,17.1,10.0,30.38,NNE,12,0.0,2.0,75,0.00,,,0.00,weatherlink.com 1.10,2014-02-02 05:33:00,
2014-02-01 23:47:00,15.5,9.0,30.38,NNE,12,0.0,2.0,76,0.00,,,0.00,weatherlink.com 1.10,2014-02-02 05:47:00,